SL-16 DEB, 28355

Orbit data source: Space-Track

SL-16 DEB, 28355 is space debris in LEO originally from a launch on Thu, 10 Jun 2004 UTC launched from the Tyuratam Missile And Space Complex (TTMTR). Debris objects in space refer to the collection of defunct objects orbiting the Earth. Examples of debris include non-operational satellites, rocket bodies, and fragments generated from explosions, collisions, or faulty payload assembly.

Loading next visibility...
Identifier
28355, 2004-021D
Orbit
LEO
Country
Flag of CISCIS
Related business
Manufacturer
Yuzhnoe
Mission
Spacecraft
Bus & Motor
SEP MOTOR COVER, Unknown motor
Mass
~1 kg wet, ~1 kg dry
Launch date (UTC)
2004-06-10 (22 years ago)
Launch vehicle
Unknown
Launch site
Tyuratam Missile And Space Complex (TTMTR)
Object type
Payload
Rocket body
Debris
Shape & HBR
Cone, 0.5 m
Radar Cross Section
0.635 m², Small (<0.1 m²)

Expand to show TLE details & history
Last TLE update: 20 hours ago

TLE from 20 hours ago
0 SL-16 DEB
1 28355U 04021D   26118.83843608  .00000012  00000-0  52791-4 0  9999
2 28355  70.9660 270.6782 0226031  37.0980  77.0451 13.68330675 91912
Epoch: 2026-04-28T20:07Z
TLE epoch observation values (Epoch: 2026-04-28T20:07:20.877Z)
Latitude
57.74382°
Longitude
-100.90983°
Altitude
980.928 km
Speed
7.384 km/s
True Right ascension
03h 50m 56s
True Declination
57° 35' 35"
Sunlit
Object was in daylight at epoch
Visualization orbit readout
Latitude
Unknown
Longitude
Unknown
Altitude
Unknown
Speed
Unknown
Apparent Right ascension
Unknown
Apparent Declination
Unknown
Sunlit
N/A
Visualization observer readout
Local Sidereal Time
23:07:24
Azimuth
Unknown
Elevation
Unknown
Doppler factor
Unknown
Orbital elements
Apogee altitude
1,170.392 km
Perigee altitude
836.694 km
Semi-major axis
7,381.68 km
Eccentricity
0.0226
Inclination
70.966°
RAAN
270.6782°
Arg. of periapsis
37.098°
True anomaly
79.58455°
Mean anomaly
77.0451°
Eccentric anomaly
78.31332°
Mean motion
3.42224 °/min
Orbital period
105.19 mins
BSTAR
0.000052791
Loading maneuver chart data...
Computing Atmospheric mass density...
Loading historical data...
Loading historical data...
Loading historical data...
Loading historical data...
Loading historical data...
Loading historical data...
Loading historical data...

Documentation

Showing up to 5 results
|